Location: Juzet
(42.9779°N, 0.7597°E)
Time: 03:01:19
(UTC+00:00)

IRS-1C - Pass Details

Date: 14 July 2020
Orbit: 815 x 817 km, 98.8° (Epoch: 04 August)

Event Time Altitude Azimuth Distance (km) Brightness Sun altitude
Rises 02:52:31 0° 11° (N) 3,353 8.4 -14.5°
Reaches altitude 10° 02:54:52 10° 9° (N) 2,416 7.5 -14.3°
Maximum altitude 03:00:10 68° 288° (WNW) 880 4.2 -13.6°
Enters shadow 03:04:12 18° 208° (SSW) 1,926 5.5 -13.1°
